TimeCEST,TemperatureF,Dew PointF,Humidity,Sea Level PressureIn,VisibilityMPH,Wind Direction,Wind SpeedMPH,Gust SpeedMPH,PrecipitationIn,Events,Conditions,WindDirDegrees,DateUTC
12:00 AM,53.6,51.8,94,30.04,1.9,ENE,3.5,-,N/A,,Partly Cloudy,70,2013-05-06 22:00:00
1:00 AM,53.6,51.8,94,30.01,1.9,NNE,4.6,-,N/A,,Mist,30,2013-05-06 23:00:00
2:00 AM,53.6,51.8,94,30.01,3.1,NE,5.8,-,N/A,,Mist,40,2013-05-07 00:00:00
3:00 AM,51.8,51.8,100,30.01,1.4,ENE,3.5,-,N/A,,Mostly Cloudy,70,2013-05-07 01:00:00
4:00 AM,53.6,53.6,100,29.98,3.1,NE,5.8,-,N/A,,Mostly Cloudy,50,2013-05-07 02:00:00
5:00 AM,55.4,53.6,94,29.98,2.5,NE,4.6,-,N/A,,Mostly Cloudy,50,2013-05-07 03:00:00
6:00 AM,53.6,53.6,100,29.98,0.7,NNE,3.5,-,N/A,,Mostly Cloudy,30,2013-05-07 04:00:00
6:30 AM,53.6,53.6,100,29.98,0.7,NE,3.5,-,N/A,,Mostly Cloudy,50,2013-05-07 04:30:00
7:00 AM,55.4,53.6,94,30.01,1.6,ENE,3.5,-,N/A,,Mostly Cloudy,70,2013-05-07 05:00:00
7:35 AM,55.4,53.6,94,29.98,0.9,ENE,3.5,-,N/A,,Mostly Cloudy,70,2013-05-07 05:35:00
8:00 AM,55.4,55.4,100,30.01,1.2,Variable,2.3,-,N/A,,Mostly Cloudy,0,2013-05-07 06:00:00
8:30 AM,55.4,53.6,94,29.98,2.2,SE,3.5,-,N/A,,Mostly Cloudy,130,2013-05-07 06:30:00
9:00 AM,57.2,55.4,94,30.01,2.2,ESE,4.6,-,N/A,,Mostly Cloudy,120,2013-05-07 07:00:00
9:30 AM,57.2,53.6,88,29.98,2.5,ESE,6.9,-,N/A,,Mostly Cloudy,120,2013-05-07 07:30:00
10:00 AM,59.0,53.6,82,29.98,1.9,ENE,4.6,-,N/A,,Mostly Cloudy,70,2013-05-07 08:00:00
10:30 AM,57.2,55.4,94,30.01,2.2,ENE,8.1,-,N/A,,Mostly Cloudy,70,2013-05-07 08:30:00
10:36 AM,57.2,55.4,94,30.01,2.2,ENE,8.1,-,N/A,Rain,Light Rain Showers,70,2013-05-07 08:36:00
11:00 AM,57.2,55.4,94,30.01,2.2,ENE,6.9,-,N/A,Rain,Light Rain Showers,70,2013-05-07 09:00:00
11:30 AM,57.2,55.4,94,30.01,2.2,East,8.1,-,N/A,Rain,Light Rain Showers,80,2013-05-07 09:30:00
12:00 PM,59.0,55.4,88,30.01,3.7,ESE,9.2,-,N/A,,Mostly Cloudy,120,2013-05-07 10:00:00
12:30 PM,59.0,53.6,82,30.01,4.3,ESE,8.1,-,N/A,,Mostly Cloudy,120,2013-05-07 10:30:00
1:00 PM,59.0,55.4,88,30.01,5.0,SE,8.1,-,N/A,,Mostly Cloudy,130,2013-05-07 11:00:00
1:30 PM,59.0,55.4,88,30.01,5.6,ESE,9.2,-,N/A,,Mostly Cloudy,120,2013-05-07 11:30:00
2:00 PM,60.8,55.4,82,29.98,6.2,ESE,9.2,-,N/A,,Mostly Cloudy,110,2013-05-07 12:00:00
2:30 PM,62.6,53.6,72,29.98,6.2,ESE,9.2,-,N/A,,Scattered Clouds,120,2013-05-07 12:30:00
3:00 PM,64.4,53.6,68,29.98,6.2,ESE,5.8,-,N/A,,Scattered Clouds,120,2013-05-07 13:00:00
3:30 PM,64.4,55.4,73,29.98,6.2,ESE,8.1,-,N/A,,Scattered Clouds,110,2013-05-07 13:30:00
4:00 PM,60.8,55.4,82,29.98,6.2,ESE,10.4,-,N/A,Rain,Light Rain Showers,110,2013-05-07 14:00:00
4:30 PM,60.8,55.4,82,29.95,6.2,SE,9.2,-,N/A,,Scattered Clouds,130,2013-05-07 14:30:00
5:00 PM,62.6,57.2,82,29.95,6.2,ESE,10.4,-,N/A,,Partly Cloudy,120,2013-05-07 15:00:00
5:30 PM,64.4,55.4,73,29.95,6.2,ESE,12.7,-,N/A,,Scattered Clouds,110,2013-05-07 15:30:00
6:00 PM,62.6,53.6,72,29.95,6.2,SE,12.7,-,N/A,Rain,Light Rain Showers,130,2013-05-07 16:00:00
6:30 PM,59.0,55.4,88,29.95,6.2,SE,9.2,-,N/A,,Partly Cloudy,140,2013-05-07 16:30:00
7:00 PM,60.8,55.4,82,29.95,6.2,WNW,3.5,-,N/A,,Partly Cloudy,300,2013-05-07 17:00:00
7:30 PM,59.0,55.4,88,29.98,6.2,Variable,2.3,-,N/A,,Scattered Clouds,0,2013-05-07 17:30:00
8:00 PM,59.0,55.4,88,29.98,6.2,Variable,2.3,-,N/A,,Scattered Clouds,0,2013-05-07 18:00:00
8:30 PM,59.0,55.4,88,29.98,6.2,WNW,4.6,-,N/A,,Mostly Cloudy,290,2013-05-07 18:30:00
9:00 PM,57.2,53.6,88,29.98,6.2,Calm,Calm,-,N/A,,Mostly Cloudy,0,2013-05-07 19:00:00
9:30 PM,57.2,53.6,88,29.98,6.2,Variable,1.2,-,N/A,,Scattered Clouds,0,2013-05-07 19:30:00
10:00 PM,55.4,51.8,88,29.98,6.2,Variable,2.3,-,N/A,Rain,Light Rain Showers,0,2013-05-07 20:00:00
11:00 PM,55.4,53.6,94,29.98,5.0,East,3.5,-,N/A,,Partly Cloudy,100,2013-05-07 21:00:00